Mandan, ND

12:58 PM CST on January 22, 2017 (GMT -0600)
Mandan

Weather History for KY19 - March, 2013

Change the Weather History Date:

Saturday, March 30, 2013

  Actual Average (KBIS) Record (KBIS)
Temperature  
Mean Temperature 40 °F -  
Max Temperature 51 °F 48 °F 75 °F (1966)
Min Temperature 28 °F 23 °F -9 °F (1969)
Degree Days  
Heating Degree Days 26    
Moisture  
Dew Point 34 °F    
Average Humidity 87    
Maximum Humidity 100    
Minimum Humidity 47    
Precipitation  
Precipitation 0.00 in - - ()
Sea Level Pressure  
Sea Level Pressure 30.00 in    
Wind  
Wind Speed 10 mph (NW)    
Max Wind Speed 26 mph    
Max Gust Speed 34 mph    
Visibility 7 miles    
Events Fog , Rain    
Averages and records for this station are not official NWS values.
T = Trace of Precipitation, MM = Missing Value Source: NWS Daily Summary

Daily Weather History Graph

Daily Weather History Graph

Search for Another Location

Airport or City:

Trip Planner

Search our weather history database for the weather conditions in past years. The results will help you decide how hot, cold, wet, or windy it might be!

Date:

Astronomy

Mar. 30, 2013 Rise Set
Actual Time 7:26 AM CDT 8:10 PM CDT
Civil Twilight 6:55 AM CDT 8:41 PM CDT
Nautical Twilight 6:19 AM CDT 9:17 PM CDT
Astronomical Twilight 5:41 AM CDT 9:55 PM CDT
Moon No Moon Rise 9:08 AM CDT (3/30)
Length of Visible Light 13h 45m
Length of Day
12h 44m
Waning Gibbous, 86% of the Moon is Illuminated
Mar 30
Waning Gibbous
Apr 2
Last Quarter
Apr 10
New
Apr 18
First Quarter
Apr 25
Full

Hourly Weather History & Observations

Time (CDT) Temp. Windchill Dew Point Humidity Pressure Visibility Wind Dir Wind Speed Gust Speed Precip Events Conditions
12:15 AM 32.0 °F 27.5 °F 32.0 °F 100% 29.99 in 5.0 mi West 4.6 mph - N/A   Partly Cloudy
12:35 AM 32.0 °F 24.8 °F 32.0 °F 100% 29.99 in 4.0 mi West 8.1 mph - N/A   Clear
12:55 AM 32.0 °F 28.7 °F 32.0 °F 100% 30.00 in 3.0 mi WNW 3.5 mph - N/A   Clear
1:15 AM 30.2 °F 25.4 °F 30.2 °F 100% 30.00 in 4.0 mi WNW 4.6 mph - N/A   Clear
1:35 AM 32.0 °F 24.8 °F 32.0 °F 100% 29.99 in 5.0 mi NW 8.1 mph - N/A   Clear
1:55 AM 32.0 °F 24.8 °F 32.0 °F 100% 29.99 in 5.0 mi WNW 8.1 mph - N/A   Clear
2:15 AM 32.0 °F 24.8 °F 32.0 °F 100% 29.99 in 4.0 mi West 8.1 mph - N/A   Clear
2:35 AM 32.0 °F 25.6 °F 32.0 °F 100% 30.00 in 3.0 mi West 6.9 mph - N/A   Clear
2:55 AM 32.0 °F 24.8 °F 32.0 °F 100% 29.99 in 3.0 mi WNW 8.1 mph - N/A   Clear
3:15 AM 32.0 °F 24.2 °F 32.0 °F 100% 30.00 in 4.0 mi WNW 9.2 mph - N/A   Clear
3:35 AM 32.0 °F 25.6 °F 32.0 °F 100% 30.00 in 4.0 mi NW 6.9 mph - N/A   Clear
3:55 AM 32.0 °F 25.6 °F 32.0 °F 100% 29.99 in 5.0 mi NW 6.9 mph - N/A   Clear
4:15 AM 32.0 °F 25.6 °F 32.0 °F 100% 29.99 in 5.0 mi NW 6.9 mph - N/A   Clear
4:35 AM 32.0 °F 25.6 °F 32.0 °F 100% 29.99 in 5.0 mi WNW 6.9 mph - N/A   Clear
4:55 AM 32.0 °F 24.8 °F 32.0 °F 100% 29.99 in 4.0 mi WNW 8.1 mph - N/A   Clear
5:15 AM 32.0 °F 24.2 °F 32.0 °F 100% 29.99 in 4.0 mi WNW 9.2 mph - N/A   Clear
5:35 AM 30.2 °F 21.9 °F 30.2 °F 100% 29.99 in 3.0 mi WNW 9.2 mph - N/A   Clear
5:55 AM 28.4 °F 20.4 °F 28.4 °F 100% 30.00 in 3.0 mi WNW 8.1 mph - N/A   Clear
6:15 AM 32.0 °F 23.0 °F 32.0 °F 100% 30.00 in 4.0 mi NW 11.5 mph - N/A   Clear
6:35 AM 32.0 °F 24.2 °F 32.0 °F 100% 30.00 in 3.0 mi WNW 9.2 mph - N/A   Partly Cloudy
6:55 AM 32.0 °F 23.6 °F 32.0 °F 100% 30.01 in 3.0 mi WNW 10.4 mph - N/A   Partly Cloudy
7:15 AM 32.0 °F 23.0 °F 32.0 °F 100% 30.01 in 3.0 mi NW 11.5 mph - N/A   Clear
7:35 AM 32.0 °F 23.0 °F 32.0 °F 100% 30.01 in 2.0 mi NW 11.5 mph - N/A   Clear
7:55 AM 32.0 °F 23.6 °F 32.0 °F 100% 30.02 in 1.0 mi NW 10.4 mph - N/A   Overcast
8:15 AM 32.0 °F 24.2 °F 32.0 °F 100% 30.02 in 0.2 mi NW 9.2 mph - N/A Fog Fog
8:35 AM 32.0 °F 24.2 °F 32.0 °F 100% 30.02 in 0.2 mi NW 9.2 mph - N/A Fog Fog
8:55 AM 32.0 °F 24.8 °F 32.0 °F 100% 30.02 in 0.2 mi NW 8.1 mph - N/A Fog Fog
9:15 AM 32.0 °F 23.6 °F 32.0 °F 100% 30.02 in 0.5 mi WNW 10.4 mph - N/A Fog Fog
9:35 AM 33.8 °F 25.3 °F 33.8 °F 100% 30.02 in 1.5 mi NW 11.5 mph - N/A   Overcast
9:55 AM 33.8 °F 23.9 °F 33.8 °F 100% 30.02 in 1.8 mi NW 15.0 mph - N/A   Mostly Cloudy
10:15 AM 35.6 °F 26.6 °F 35.6 °F 100% 30.02 in 2.5 mi NW 13.8 mph - N/A   Partly Cloudy
10:35 AM 37.4 °F 29.3 °F 37.4 °F 100% 30.02 in 4.0 mi WNW 12.7 mph - N/A   Mostly Cloudy
10:55 AM 37.4 °F 28.9 °F 37.4 °F 100% 30.02 in 3.0 mi NW 13.8 mph - N/A   Mostly Cloudy
11:15 AM 39.2 °F 31.6 °F 39.2 °F 100% 30.02 in 4.0 mi NW 12.7 mph 16.1 mph N/A   Partly Cloudy
11:35 AM 41.0 °F 34.3 °F 39.2 °F 93% 30.03 in 9.0 mi NW 11.5 mph 16.1 mph N/A   Clear
11:55 AM 42.8 °F 36.2 °F 39.2 °F 87% 30.03 in 10.0 mi NW 12.7 mph - N/A   Partly Cloudy
12:15 PM 42.8 °F 35.1 °F 37.4 °F 81% 30.03 in 10.0 mi NW 16.1 mph 19.6 mph N/A   Partly Cloudy
12:35 PM 44.6 °F 37.8 °F 39.2 °F 81% 30.03 in 10.0 mi NNW 15.0 mph 18.4 mph N/A   Clear
12:55 PM 44.6 °F 37.2 °F 37.4 °F 76% 30.02 in 10.0 mi NNW 17.3 mph - N/A   Clear
1:15 PM 46.4 °F 40.7 °F 39.2 °F 76% 30.02 in 10.0 mi NW 12.7 mph - N/A   Clear
1:35 PM 46.4 °F 41.1 °F 39.2 °F 76% 30.02 in 10.0 mi NW 11.5 mph 17.3 mph N/A   Clear
1:55 PM 48.2 °F - 37.4 °F 66% 30.01 in 10.0 mi NW 15.0 mph - N/A   Clear
2:15 PM 48.2 °F - 37.4 °F 66% 30.01 in 10.0 mi NNW 11.5 mph - N/A   Clear
2:35 PM 50.0 °F - 35.6 °F 58% 30.01 in 10.0 mi NNW 11.5 mph - N/A   Clear
2:55 PM 50.0 °F - 35.6 °F 58% 30.00 in 10.0 mi NNW 10.4 mph 17.3 mph N/A   Clear
3:15 PM 50.0 °F - 32.0 °F 50% 30.00 in 10.0 mi NNW 11.5 mph - N/A   Clear
3:35 PM 50.0 °F - 32.0 °F 50% 29.99 in 10.0 mi NNW 11.5 mph 20.7 mph N/A   Clear
3:55 PM 50.0 °F - 32.0 °F 50% 29.99 in 10.0 mi NW 12.7 mph - N/A   Clear
4:15 PM 50.0 °F - 32.0 °F 50% 29.98 in 10.0 mi NW 11.5 mph - N/A   Clear
4:35 PM 51.8 °F - 32.0 °F 47% 29.98 in 10.0 mi NW 16.1 mph 20.7 mph N/A   Clear
4:55 PM 51.8 °F - 32.0 °F 47% 29.98 in 10.0 mi NNW 17.3 mph 21.9 mph N/A   Clear
5:15 PM 51.8 °F - 32.0 °F 47% 29.97 in 10.0 mi NNW 16.1 mph 21.9 mph N/A   Clear
5:35 PM 50.0 °F - 32.0 °F 50% 29.98 in 10.0 mi NNW 17.3 mph 20.7 mph N/A   Partly Cloudy
5:55 PM 48.2 °F - 32.0 °F 54% 29.98 in 10.0 mi NNW 17.3 mph 26.5 mph N/A   Clear
6:15 PM 48.2 °F - 35.6 °F 62% 29.99 in 10.0 mi NNW 26.5 mph 34.5 mph N/A   Mostly Cloudy
6:35 PM 42.8 °F 34.0 °F 32.0 °F 66% 30.00 in 10.0 mi NNW 20.7 mph 28.8 mph N/A   Mostly Cloudy
6:55 PM 41.0 °F 32.2 °F 33.8 °F 76% 30.00 in 10.0 mi NNW 18.4 mph - N/A   Mostly Cloudy
7:15 PM 41.0 °F 33.5 °F 35.6 °F 81% 29.99 in 10.0 mi NW 13.8 mph 19.6 mph N/A Rain Light Rain
7:35 PM 41.0 °F 34.3 °F 35.6 °F 81% 29.99 in 10.0 mi NW 11.5 mph - N/A   Overcast
7:55 PM 41.0 °F 33.9 °F 35.6 °F 81% 29.99 in 10.0 mi NW 12.7 mph - N/A   Overcast
8:15 PM 39.2 °F 31.6 °F 35.6 °F 87% 29.99 in 10.0 mi WNW 12.7 mph 18.4 mph N/A   Scattered Clouds
8:35 PM 37.4 °F 29.8 °F 35.6 °F 93% 29.99 in 10.0 mi WNW 11.5 mph - N/A   Clear
8:55 PM 37.4 °F 29.8 °F 35.6 °F 93% 29.99 in 10.0 mi West 11.5 mph - N/A   Clear
9:15 PM 35.6 °F 27.1 °F 35.6 °F 100% 30.00 in 10.0 mi WNW 12.7 mph - N/A   Partly Cloudy
9:35 PM 37.4 °F 28.9 °F 35.6 °F 93% 30.01 in 10.0 mi WNW 13.8 mph - N/A   Partly Cloudy
9:55 PM 35.6 °F 27.5 °F 35.6 °F 100% 30.01 in 10.0 mi WNW 11.5 mph - N/A   Clear
10:15 PM 35.6 °F 26.6 °F 35.6 °F 100% 30.01 in 10.0 mi WNW 13.8 mph - N/A   Clear
10:35 PM 35.6 °F 25.9 °F 35.6 °F 100% 30.02 in 10.0 mi WNW 16.1 mph - N/A   Clear
10:55 PM 35.6 °F 26.2 °F 32.0 °F 87% 30.02 in 10.0 mi WNW 15.0 mph 21.9 mph N/A   Clear
11:15 PM 32.0 °F 22.5 °F 32.0 °F 100% 30.02 in 10.0 mi WNW 12.7 mph - N/A   Clear
11:35 PM 32.0 °F 20.5 °F 30.2 °F 93% 30.02 in 10.0 mi WNW 18.4 mph 23.0 mph N/A   Clear
11:55 PM 32.0 °F 20.5 °F 26.6 °F 80% 30.02 in 10.0 mi NW 18.4 mph 24.2 mph N/A   Clear